Regional Weather Roundup
Issued by NWS

Home | Current Version | Previous Version | Text Only | Print | Product List | Glossary On
Versions: 1 2 3 4 5 6 7 8 9 10 11 12 13 14 15 16 17 18 19 20 21 22 23 24 25 26 27 28 29 30 31 32 33 34 35 36 37 38 39 40 41 42 43 44 45 46 47 48 49 50
000
ASUS44 KJAN 220110
RWRMS

MISSISSIPPI HOURLY WEATHER ROUNDUP
NATIONAL WEATHER SERVICE JACKSON MS
800 PM CDT TUE OCT 21 2014

NOTE: "FAIR: INDICATES FEW OR NO CLOUDS BELOW 12,000 FEET WITH NO
SIGNIFICANT WEATHER AND/OR OBSTRUCTIONS TO VISIBILITY.

MSZ001>002-007>008-010>013-018>021-025>028-034>036-220200-
NORTHWEST MISSISSIPPI

CITY           SKY/WX    TMP DP  RH WIND       PRES   REMARKS
CLARKSDALE     FAIR      63  52  67 CALM      30.07R
CLEVELAND      FAIR      64  58  80 N6        30.05R HAZE
GREENWOOD      CLEAR     60  58  92 N5        30.04R
GREENVILLE     CLEAR     66  57  72 N7        30.04R
GRENADA          N/A    N/A N/A N/A MISG        N/A
OLIVE BRANCH   CLEAR     61  50  67 CALM      30.08R
OXFORD         FAIR      55  52  88 CALM      30.09R
TUNICA         CLEAR     59  50  72 CALM      30.08R
$$

MSZ003>006-009-014>017-022>024-029>033-037>039-220200-
NORTHEAST MISSISSIPPI

CITY           SKY/WX    TMP DP  RH WIND       PRES   REMARKS
COLUMBUS AFB   CLEAR     58  55  90 CALM      30.04R
CORINTH        FAIR      55  50  82 NW3       30.06R
GOLDN TRIANGLE CLEAR     64  50  59 N6        30.01S
STARKVILLE     FAIR      61  55  82 CALM      30.04R
TUPELO         CLEAR     61  51  70 CALM      30.05R
$$

MSZ040-058-220200-
CENTRAL MISSISSIPPI

CITY           SKY/WX    TMP DP  RH WIND       PRES   REMARKS
JACKSON INTL   CLEAR     62  57  83 CALM      30.03R
JACKSON HAWKNS CLEAR     66  58  75 CALM      30.03R
MERIDIAN KEY   CLEAR     60  56  86 CALM      30.02R
MERIDIAN NAS   CLEAR     62  58  86 CALM      30.02R
RAYMOND        FAIR      59  55  88 MISG      30.03R HAZE
VICKSBURG      CLEAR     60  58  92 CALM      30.03R
$$

MSZ059>079-220200-
SOUTH MISSISSIPPI

CITY           SKY/WX    TMP DP  RH WIND       PRES   REMARKS
BROOKHAVEN     FAIR      63  59  88 CALM      30.04R
HATTIESBURG    CLEAR     64  59  83 CALM      30.01R
MCCOMB         CLEAR     68  56  65 N3        30.02R
NATCHEZ        CLEAR     64  57  77 CALM      30.04R
PINE BELT      CLEAR     61  54  77 N3        30.02S
$$

MSZ080>082-220200-
COASTAL MISSISSIPPI

CITY           SKY/WX    TMP DP  RH WIND       PRES   REMARKS
BAY ST LOUIS   CLEAR     63  55  77 CALM      30.01R
BILOXI         CLEAR     69  60  73 CALM      29.99R
PASCAGOULA     CLEAR     59  57  93 CALM      30.00R
GULFPORT       CLEAR     65  60  84 CALM      29.99R
$$



USA.gov is the U.S. government's official web portal to all federal, state and local government web resources and services.